Vorticity
6 5 3 2 3 6 -0 -0 0 5 4 3 5 4 -0 -1 -0 1 3 4 5 5 4 5 4 5 7 6 5 6 3 6 6 7 4 7 6 6 3 9 4 4 6
1 7 5 4 6 2 -0 -2 1 6 6 5 0 -6 1 4 6 7 7 9 10 11 11 10 9 8 8 7 5 4 5 7 7 5 6 8 10 10 6 5 10 4 2
15 11 6 5 7 -1 -4 -0 10 8 5 1 -3 -2 6 4 9 14 14 14 12 10 10 15 19 16 13 11 10 7 4 4 6 7 6 3 11 10 6 6 4 9 5
15 7 7 4 4 2 -2 10 6 3 1 -1 -2 5 9 15 16 15 11 7 4 3 6 4 11 13 14 15 16 16 14 16 15 13 11 10 12 9 8 2 18 -8 3
4 7 5 6 3 -1 7 2 1 1 2 5 11 13 16 10 8 3 1 3 4 5 5 5 5 2 2 4 6 7 6 8 11 12 12 13 11 8 9 9 -9 34 14
7 7 10 7 3 3 0 1 5 12 16 18 18 15 7 5 5 3 4 4 5 6 5 4 4 3 3 3 5 4 3 4 4 8 10 12 13 11 8 13 5 -0 6
8 7 4 2 0 -0 3 13 16 8 13 10 5 2 3 4 5 6 7 9 8 8 7 7 6 6 5 5 3 3 4 5 5 3 3 3 2 7 18 5 -2 11 8
4 2 -0 1 1 4 15 10 6 9 6 3 3 6 5 6 7 8 7 6 6 7 7 8 8 8 8 8 7 7 6 4 3 4 5 5 6 6 5 7 9 4 -2
0 2 1 1 5 13 7 5 7 7 5 5 6 8 8 8 7 6 5 5 6 5 5 5 6 7 7 8 9 10 10 10 8 6 5 3 3 4 7 6 5 8 14
1 0 2 8 13 6 7 8 7 8 9 9 9 7 6 4 4 5 4 4 5 4 5 6 6 6 10 14 12 11 11 10 9 9 7 8 8 6 5 4 4 7 6
1 3 8 9 6 8 7 9 9 10 6 5 5 3 2 3 5 4 6 4 7 7 7 7 9 9 8 9 9 11 14 13 11 10 9 10 10 10 9 9 7 4 4
15 21 20 10 6 6 7 9 7 3 1 3 1 1 1 1 3 5 4 5 4 4 5 6 6 8 7 8 6 6 7 8 10 11 12 10 11 9 8 8 8 8 7
3 11 9 14 15 7 8 5 3 3 1 2 1 1 2 3 4 7 8 6 3 6 8 7 5 5 5 4 3 1 1 3 6 5 5 6 8 11 10 9 7 8 8
4 -8 6 3 13 6 4 2 3 2 2 2 1 2 2 3 4 6 7 5 3 7 6 3 3 4 5 4 1 -2 -2 0 1 3 4 3 4 5 7 10 12 8 8
-0 1 1 -1 12 -13 11 6 2 3 2 5 5 4 4 3 1 5 7 4 6 7 3 3 5 4 6 8 6 5 4 4 4 4 5 5 5 5 7 9 7 9 12
1 -2 4 14 5 -8 1 4 5 4 4 6 2 1 1 5 -4 9 6 3 6 3 1 0 1 2 3 4 5 5 5 3 3 5 3 3 3 4 7 5 11 8 8
-3 10 0 0 4 -8 26 -7 1 5 8 2 1 3 4 3 5 5 5 1 2 1 1 1 2 0 4 4 5 8 9 7 8 6 4 2 6 5 5 4 4 5 7
9 0 9 -6 -13 12 -0 -4 8 13 5 4 8 4 5 10 4 8 -0 -1 4 2 2 13 9 11 6 7 8 8 9 9 8 8 9 7 4 7 4 7 5 3 3
9 -2 -4 16 12 -3 -3 6 16 6 6 5 7 7 6 2 1 3 5 1 2 5 8 4 9 12 10 8 8 7 8 7 7 8 7 8 8 8 9 5 5 6 4
-4 0 6 5 -8 6 12 13 7 6 4 7 6 5 7 6 8 4 -2 16 -1 2 7 12 7 8 7 5 3 6 7 8 10 9 10 8 5 8 8 7 6 0 5
5 3 -0 -6 3 16 9 6 6 6 6 7 10 10 7 8 4 10 -1 6 7 4 3 6 5 8 8 8 9 4 5 6 7 9 8 9 9 7 6 9 10 9 9
-4 -0 19 14 12 4 2 1 3 4 8 8 5 3 1 7 7 8 5 -3 4 11 12 13 13 15 11 11 13 13 12 7 4 7 10 13 10 7 7 9 14 14 14
22 26 9 4 1 1 1 2 10 13 10 9 9 8 8 4 -1 -2 5 12 14 11 7 7 9 8 9 9 10 9 15 11 11 7 3 4 9 11 12 8 2 3 4
6 4 -2 -1 3 0 -0 11 5 6 8 6 7 8 10 13 14 13 11 6 7 10 9 6 9 10 8 8 9 11 14 16 17 21 10 17 21 13 7 9 8 4 9
13 16 14 9 14 17 15 9 7 2 -0 10 8 13 12 11 9 6 8 10 6 4 11 9 6 5 6 6 8 12 12 18 20 20 28 18 15 21 24 21 20 16 17
23 15 5 6 3 5 7 3 5 13 3 1 10 9 7 8 9 11 12 10 11 11 9 11 13 13 13 18 21 23 16 11 13 16 13 13 14 18 22 28 27 24 22
Height
3184 3186 3188 3190 3192 3193 3194 3194 3194 3193 3193 3192 3192 3192 3192 3192 3190 3189 3188 3187 3185 3183 3182 3181 3180 3179 3177 3176 3177 3176 3175 3172 3171 3171 3168 3169 3169 3169 3170 3169 3168 3169 3170
3183 3186 3188 3190 3192 3193 3194 3194 3193 3193 3192 3192 3192 3192 3191 3190 3188 3187 3186 3185 3183 3181 3181 3179 3178 3176 3174 3175 3174 3173 3172 3171 3170 3166 3165 3166 3165 3169 3168 3170 3169 3165 3169
3183 3186 3189 3190 3192 3193 3193 3193 3193 3193 3193 3192 3191 3190 3189 3187 3185 3184 3183 3182 3182 3180 3178 3176 3174 3173 3172 3172 3171 3170 3170 3168 3166 3166 3164 3162 3165 3166 3166 3167 3168 3169 3168
3183 3187 3188 3190 3191 3193 3193 3193 3192 3192 3192 3191 3190 3188 3186 3184 3183 3183 3182 3182 3181 3180 3177 3175 3172 3172 3171 3169 3168 3167 3166 3164 3162 3161 3162 3161 3163 3163 3166 3166 3165 3168 3169
3184 3186 3188 3191 3192 3192 3192 3192 3192 3191 3190 3188 3187 3186 3185 3184 3183 3181 3181 3180 3179 3178 3176 3174 3172 3171 3169 3169 3167 3166 3164 3162 3160 3159 3158 3159 3160 3161 3163 3163 3164 3162 3163
3184 3186 3188 3190 3191 3191 3191 3191 3189 3188 3187 3186 3185 3185 3184 3183 3183 3182 3181 3180 3178 3177 3175 3174 3172 3170 3168 3167 3165 3164 3163 3161 3159 3158 3157 3158 3159 3158 3159 3161 3160 3160 3161
3184 3186 3188 3189 3190 3190 3189 3188 3187 3187 3186 3186 3186 3186 3184 3184 3184 3182 3180 3179 3177 3176 3174 3172 3170 3169 3167 3166 3165 3163 3161 3159 3157 3158 3156 3155 3155 3156 3156 3157 3158 3159 3158
3185 3187 3188 3188 3189 3188 3188 3188 3187 3186 3186 3186 3185 3185 3184 3183 3182 3181 3178 3177 3175 3175 3172 3170 3168 3167 3165 3164 3163 3161 3160 3157 3155 3155 3154 3154 3153 3153 3152 3152 3152 3153 3154
3185 3186 3187 3188 3188 3187 3187 3187 3187 3186 3186 3186 3186 3185 3184 3182 3180 3178 3176 3175 3173 3173 3170 3167 3165 3163 3162 3160 3159 3158 3156 3155 3153 3152 3152 3151 3151 3150 3149 3149 3149 3149 3150
3185 3186 3186 3186 3187 3187 3187 3187 3187 3186 3185 3185 3185 3185 3183 3182 3181 3178 3175 3174 3173 3171 3168 3165 3162 3160 3158 3156 3155 3154 3152 3151 3149 3148 3147 3148 3147 3147 3147 3146 3145 3144 3145
3183 3184 3185 3186 3186 3185 3186 3186 3186 3186 3186 3184 3185 3185 3184 3183 3180 3177 3174 3172 3170 3168 3165 3163 3160 3158 3156 3154 3152 3150 3149 3147 3145 3145 3143 3143 3143 3141 3141 3141 3141 3140 3139
3182 3184 3185 3185 3185 3185 3186 3188 3188 3186 3186 3185 3184 3184 3182 3179 3177 3176 3172 3169 3168 3166 3164 3161 3158 3155 3153 3152 3150 3148 3146 3144 3142 3141 3140 3138 3138 3137 3135 3134 3134 3135 3135
3181 3182 3183 3182 3183 3186 3187 3187 3186 3187 3184 3184 3180 3181 3179 3177 3176 3173 3171 3168 3166 3164 3162 3159 3156 3153 3150 3148 3146 3145 3143 3141 3139 3137 3136 3135 3133 3133 3132 3131 3129 3128 3129
3180 3181 3182 3182 3182 3183 3184 3184 3183 3185 3185 3184 3178 3176 3174 3174 3172 3170 3168 3166 3164 3162 3159 3156 3153 3150 3148 3145 3142 3140 3138 3137 3135 3133 3131 3130 3129 3127 3127 3126 3125 3125 3124
3179 3179 3181 3183 3181 3180 3180 3182 3181 3181 3181 3182 3179 3176 3173 3172 3170 3168 3165 3162 3159 3157 3155 3151 3148 3145 3143 3140 3138 3135 3133 3131 3129 3127 3126 3125 3124 3121 3120 3120 3119 3119 3118
3178 3178 3181 3182 3183 3183 3180 3181 3179 3175 3176 3176 3175 3174 3170 3170 3168 3165 3163 3159 3155 3152 3150 3147 3143 3140 3137 3134 3131 3128 3125 3124 3121 3119 3117 3116 3116 3116 3114 3113 3112 3112 3112
3177 3178 3181 3183 3184 3183 3182 3181 3179 3176 3176 3173 3171 3170 3167 3166 3165 3163 3159 3154 3151 3149 3145 3142 3138 3134 3131 3127 3123 3120 3117 3115 3114 3112 3110 3107 3106 3106 3106 3106 3105 3105 3104
3175 3176 3178 3179 3180 3181 3179 3178 3177 3175 3173 3168 3166 3163 3162 3161 3160 3157 3153 3149 3145 3143 3138 3134 3130 3126 3122 3119 3115 3113 3110 3107 3104 3103 3102 3101 3098 3096 3095 3096 3096 3096 3097
3173 3175 3176 3175 3177 3176 3175 3174 3173 3171 3168 3165 3161 3158 3154 3151 3149 3147 3145 3142 3138 3134 3130 3125 3121 3116 3111 3108 3104 3102 3101 3099 3096 3094 3091 3090 3089 3087 3085 3084 3083 3085 3086
3173 3173 3173 3172 3173 3173 3170 3168 3166 3165 3161 3158 3155 3152 3149 3147 3144 3141 3137 3132 3128 3124 3120 3116 3111 3107 3102 3096 3091 3089 3088 3087 3085 3083 3080 3078 3076 3074 3073 3072 3073 3072 3074
3172 3172 3171 3170 3169 3167 3165 3163 3161 3159 3156 3153 3150 3147 3145 3142 3138 3134 3128 3123 3118 3113 3108 3104 3098 3094 3091 3086 3080 3077 3075 3074 3072 3071 3069 3066 3064 3063 3062 3062 3061 3062 3063
3171 3168 3167 3166 3164 3162 3161 3160 3159 3156 3152 3148 3146 3144 3140 3136 3131 3125 3119 3114 3108 3102 3098 3093 3088 3081 3077 3073 3068 3064 3057 3060 3059 3058 3056 3055 3052 3051 3049 3048 3047 3048 3050
3168 3168 3167 3164 3161 3160 3159 3157 3154 3152 3149 3146 3141 3137 3133 3128 3122 3115 3109 3102 3096 3090 3085 3079 3074 3070 3064 3060 3057 3052 3045 3040 3036 3040 3044 3041 3040 3037 3036 3035 3034 3034 3036
3165 3164 3164 3162 3160 3157 3154 3152 3150 3146 3143 3140 3136 3130 3124 3118 3112 3105 3098 3093 3087 3081 3076 3069 3063 3057 3051 3046 3042 3039 3034 3028 3021 3017 3020 3022 3024 3022 3021 3020 3019 3020 3020
3163 3160 3158 3157 3153 3149 3146 3142 3138 3135 3131 3127 3122 3117 3112 3108 3102 3095 3088 3082 3076 3070 3064 3058 3052 3046 3041 3035 3030 3025 3022 3018 3014 3008 3001 3001 3005 3007 3006 3003 3003 3003 3005
3159 3156 3152 3146 3143 3139 3137 3135 3132 3128 3123 3118 3113 3108 3104 3099 3092 3085 3078 3072 3066 3059 3053 3048 3043 3037 3031 3025 3021 3017 3012 3008 3003 3001 2997 2994 2991 2992 2993 2992 2990 2989 2990